Location: San Martino di Castrozza
(46.2667°N, 11.8000°E)
Time: 12:59:55
(UTC+00:00)

Cosmos 1943 Rocket - Visible Passes

Search period start: 03 August 2021 00:00
Search period end: 13 August 2021 00:00
Orbit: 813 x 843 km, 71.0° (Epoch: 02 August)

Date Brightness Start Highest point End Pass type
(mag) Time Alt. Az. Time Alt. Az. Time Alt. Az.
05 Aug 4.4 03:16:33 10° SSE 03:20:43 23° ESE 03:24:54 10° NE visible
06 Aug 4.5 02:57:43 10° SE 03:01:34 20° E 03:05:27 10° NE visible
07 Aug 4.6 02:38:57 10° SE 02:42:26 17° E 02:45:57 10° ENE visible
08 Aug 4.6 02:20:17 10° SE 02:23:19 15° E 02:26:22 10° ENE visible
09 Aug 4.7 02:01:44 10° ESE 02:04:11 13° E 02:06:39 10° ENE visible
10 Aug 4.7 01:43:28 10° ESE 01:45:04 11° E 01:46:41 10° ENE visible
10 Aug 2.3 03:22:21 10° SSW 03:27:49 78° ESE 03:33:22 10° NNE visible
11 Aug 2.4 03:03:09 10° SSW 03:08:37 69° ESE 03:14:07 10° NNE visible
12 Aug 2.6 02:44:01 10° S 02:49:24 61° ESE 02:54:52 10° NNE visible
